Branson, MO

10:18 AM CDT on July 28, 2017 (GMT -0500)
Branson

Weather History for KBBG - June, 2013

Change the Weather History Date:

Saturday, June 22, 2013

  Actual Average (KHRO) Record (KHRO)
Temperature  
Mean Temperature 80 °F -  
Max Temperature 89 °F 86 °F 101 °F (1936)
Min Temperature 71 °F 64 °F 43 °F (1902)
Cooling Degree Days 15    
Growing Degree Days 30 (Base 50)    
Moisture  
Dew Point 69 °F    
Average Humidity 77    
Maximum Humidity 94    
Minimum Humidity 43    
Precipitation  
Precipitation 0.00 in - - ()
Sea Level Pressure  
Sea Level Pressure 30.07 in    
Wind  
Wind Speed 7 mph (SSE)    
Max Wind Speed 13 mph    
Max Gust Speed -    
Visibility 10 miles    
Events      
Averages and records for this station are not official NWS values.
T = Trace of Precipitation, MM = Missing Value Source: NWS Daily Summary

Daily Weather History Graph

Daily Weather History Graph

Search for Another Location

Airport or City:

Trip Planner

Search our weather history database for the weather conditions in past years. The results will help you decide how hot, cold, wet, or windy it might be!

Date:

Astronomy

Jun. 22, 2013 Rise Set
Actual Time 5:55 AM CDT 8:34 PM CDT
Civil Twilight 5:24 AM CDT 9:05 PM CDT
Nautical Twilight 4:46 AM CDT 9:43 PM CDT
Astronomical Twilight 4:03 AM CDT 10:25 PM CDT
Moon 7:51 PM CDT (6/22) 5:06 AM CDT (6/22)
Length of Visible Light 15h 40m
Length of Day
14h 39m
Waxing Gibbous, 99% of the Moon is Illuminated
Jun 22
Waxing Gibbous
Jun 23
Full
Jun 29
Last Quarter
Jul 8
New
Jul 15
First Quarter

Hourly Weather History & Observations

Time (CDT) Temp. Heat Index Dew Point Humidity Pressure Visibility Wind Dir Wind Speed Gust Speed Precip Events Conditions
12:15 AM 77.0 °F - 71.6 °F 83% 30.09 in 10.0 mi SSE 9.2 mph - N/A   Clear
12:35 AM 77.0 °F - 71.6 °F 83% 30.09 in 10.0 mi SE 8.1 mph - N/A   Clear
12:55 AM 75.2 °F - 71.6 °F 89% 30.09 in 10.0 mi SE 8.1 mph - N/A   Clear
1:15 AM 75.2 °F - 71.6 °F 89% 30.09 in 10.0 mi SE 6.9 mph - N/A   Clear
1:35 AM 75.2 °F - 71.6 °F 89% 30.10 in 10.0 mi SE 6.9 mph - N/A   Clear
1:55 AM 75.2 °F - 71.6 °F 89% 30.09 in 10.0 mi SSE 6.9 mph - N/A   Clear
2:15 AM 75.2 °F - 71.6 °F 89% 30.08 in 10.0 mi South 5.8 mph - N/A   Clear
2:35 AM 75.2 °F - 71.6 °F 89% 30.08 in 10.0 mi SSW 5.8 mph - N/A   Clear
2:55 AM 75.2 °F - 71.6 °F 89% 30.07 in 10.0 mi South 5.8 mph - N/A   Clear
3:15 AM 75.2 °F - 71.6 °F 89% 30.07 in 10.0 mi South 4.6 mph - N/A   Clear
3:35 AM 75.2 °F - 71.6 °F 89% 30.06 in 10.0 mi South 4.6 mph - N/A   Clear
3:55 AM 75.2 °F - 69.8 °F 83% 30.06 in 10.0 mi South 3.5 mph - N/A   Clear
4:15 AM 73.4 °F - 69.8 °F 88% 30.05 in 10.0 mi South 3.5 mph - N/A   Clear
4:35 AM 73.4 °F - 69.8 °F 88% 30.04 in 10.0 mi SSE 4.6 mph - N/A   Clear
4:55 AM 73.4 °F - 69.8 °F 88% 30.05 in 10.0 mi SSE 4.6 mph - N/A   Clear
5:15 AM 73.4 °F - 69.8 °F 88% 30.05 in 10.0 mi SSE 4.6 mph - N/A   Clear
5:35 AM 71.6 °F - 69.8 °F 94% 30.06 in 9.0 mi SE 5.8 mph - N/A   Clear
5:55 AM 71.6 °F - 69.8 °F 94% 30.06 in 8.0 mi SE 6.9 mph - N/A   Clear
6:15 AM 71.6 °F - 69.8 °F 94% 30.08 in 7.0 mi SE 5.8 mph - N/A   Clear
6:35 AM 71.6 °F - 69.8 °F 94% 30.09 in 7.0 mi SE 6.9 mph - N/A   Clear
6:48 AM 73.4 °F - 71.6 °F 94% 30.09 in 7.0 mi SE 6.9 mph - N/A   Partly Cloudy
7:45 AM 75.2 °F - 71.6 °F 89% 30.11 in 10.0 mi SE 9.2 mph - N/A   Partly Cloudy
8:45 AM 75.2 °F - 71.6 °F 89% 30.13 in 10.0 mi SSE 9.2 mph - N/A   Scattered Clouds
9:45 AM 80.6 °F 84.6 °F 71.6 °F 74% 30.12 in 10.0 mi South 9.2 mph - N/A   Partly Cloudy
10:45 AM 82.4 °F 87.2 °F 71.6 °F 70% 30.13 in 10.0 mi SSE 9.2 mph - N/A   Scattered Clouds
11:47 AM 86.0 °F 90.4 °F 69.8 °F 58% 30.13 in 10.0 mi SE 9.2 mph - N/A   Mostly Cloudy
12:55 PM 87.8 °F 91.4 °F 68.0 °F 52% 30.11 in 10.0 mi South 8.1 mph - N/A   Mostly Cloudy
1:45 PM 89.6 °F 92.2 °F 66.2 °F 46% 30.11 in 10.0 mi South 12.7 mph - N/A   Mostly Cloudy
2:45 PM 89.6 °F 92.2 °F 66.2 °F 46% 30.08 in 10.0 mi SE 11.5 mph - N/A   Scattered Clouds
3:45 PM 89.6 °F 91.1 °F 64.4 °F 43% 30.04 in 10.0 mi South 5.8 mph - N/A   Scattered Clouds
4:53 PM 89.6 °F 92.2 °F 66.2 °F 46% 30.02 in 10.0 mi South 9.2 mph - N/A   Mostly Cloudy
5:48 PM 87.8 °F 90.4 °F 66.2 °F 49% 30.02 in 10.0 mi South 8.1 mph - N/A   Overcast
6:50 PM 84.2 °F 87.3 °F 68.0 °F 58% 30.01 in 10.0 mi SSE 6.9 mph - N/A   Overcast
7:50 PM 82.4 °F 85.4 °F 68.0 °F 62% 30.02 in 10.0 mi SSE 8.1 mph - N/A   Overcast
8:46 PM 80.6 °F 82.7 °F 66.2 °F 61% 30.02 in 10.0 mi SE 9.2 mph - N/A   Overcast
9:15 PM 78.8 °F - 66.2 °F 65% 30.03 in 10.0 mi SE 9.2 mph - N/A   Clear
9:35 PM 77.0 °F - 68.0 °F 74% 30.02 in 10.0 mi SSE 11.5 mph - N/A   Clear
9:55 PM 77.0 °F - 68.0 °F 74% 30.03 in 10.0 mi SSE 9.2 mph - N/A   Clear
10:15 PM 77.0 °F - 68.0 °F 74% 30.03 in 10.0 mi SSE 9.2 mph - N/A   Clear
10:35 PM 77.0 °F - 68.0 °F 74% 30.05 in 10.0 mi SSE 8.1 mph - N/A   Clear
10:55 PM 75.2 °F - 68.0 °F 78% 30.06 in 10.0 mi SE 6.9 mph - N/A   Clear
11:15 PM 75.2 °F - 68.0 °F 78% 30.06 in 10.0 mi SE 6.9 mph - N/A   Clear
11:35 PM 75.2 °F - 68.0 °F 78% 30.06 in 10.0 mi ESE 6.9 mph - N/A   Clear
11:55 PM 73.4 °F - 68.0 °F 83% 30.06 in 10.0 mi SE 6.9 mph - N/A   Clear